Location: Unspecified
(58.7730°N, 5.8460°E)
Time: 12:27:31
(UTC+02:00)

Cosmos 2058 - Visible Passes

Search period start: 23 April 2014 00:00
Search period end: 03 May 2014 00:00
Orbit: 572 x 595 km, 82.5° (Epoch: 22 April)

Date Brightness Start Highest point End Pass type
(mag) Time Alt. Az. Time Alt. Az. Time Alt. Az.
23 Apr 5.9 04:46:58 10° ESE 04:49:14 14° E 04:51:30 10° NE visible
24 Apr 5.8 04:52:21 10° SE 04:55:14 18° E 04:58:07 10° NE visible
25 Apr 5.5 04:57:55 10° SE 05:01:15 23° E 05:04:35 10° NE visible
26 Apr 5.1 05:03:37 10° SSE 05:07:16 29° E 05:10:56 10° NNE visible
29 Apr 6.0 03:48:02 10° E 03:49:12 11° ENE 03:50:22 10° ENE visible
30 Apr 5.7 03:52:53 10° ESE 03:55:07 14° E 03:57:20 10° NE visible
01 May 5.6 03:58:11 10° SE 04:01:02 18° E 04:03:54 10° NE visible
02 May 5.2 04:03:41 10° SE 04:06:59 22° E 04:10:17 10° NE visible
